QMR-KWT (48943 NORAD) Tracking and Keplerian Element Data

This shows tracking and keplerian element data for the satellite.

Feedback or suggestion? Click here.




ElementValue
Catalog48943
NameQMR-KWT
Epoch Orbit1675
Epoch Day287.59279473
Epoch Year2021
RAAN54.8778
Inclination97.5238
Eccentricity0.0007995
Argument of Perigee223.3495
Mean Anonmoly136.7108
Mean Motion15.13466405
Decay Rate2.611E-05
L11 48943U 21059BS 21287.59279473 .00002611 00000-0 14962-3 0 9996
L22 48943 97.5238 54.8778 0007995 223.3495 136.7108 15.13466405 16751

Live tracking and technical data element details for QMR-KWT (NORAD 48943). QMR-KWT can be tracked NOW for your location showing map with azimuth and elevation plus other details from your city location.

Track the satellite on the map from your city or location and see movement details for azimuth, elevation, latitude, longitude, range, height, and movement on the map or in text.







IsCatalogInMostPopularTable: catalog: 48943, numindb: 27
Update: records affected: 1



GetName: 48943 QMR-KWT

Hit Count: updated at: Tue, 19 Oct 2021 09:02:20 GMT